Saint George, Bermuda

4:07 AM AST on January 20, 2019 (GMT -0400)
Saint George

Weather History for 78016 - September, 1996

Change the Weather History Date:

Friday, September 13, 1996

  Actual Average Record
Temperature  
Mean Temperature 81 °F -  
Max Temperature 84 °F 79 °F - ()
Min Temperature 78 °F 72 °F - ()
Cooling Degree Days 16    
Growing Degree Days 31 (Base 50)    
Moisture  
Dew Point 75 °F    
Average Humidity 80    
Maximum Humidity 89    
Minimum Humidity 70    
Precipitation  
Precipitation 0.00 in - - ()
Sea Level Pressure  
Sea Level Pressure 29.92 in    
Wind  
Wind Speed 19 mph ()    
Max Wind Speed 34 mph    
Max Gust Speed 48 mph    
Visibility 6.1 miles    
Events Rain    
T = Trace of Precipitation, MM = Missing Value Source: Averaged Metar Reports

Daily Weather History Graph

Daily Weather History Graph

Search for Another Location

Airport or City:

Astronomy

Sep. 13, 1996 Rise Set
Actual Time 7:01 AM ADT 7:27 PM ADT
Civil Twilight 6:36 AM ADT 7:51 PM ADT
Nautical Twilight 6:07 AM ADT 8:20 PM ADT
Astronomical Twilight 5:38 AM ADT 8:49 PM ADT
Moon 7:31 AM ADT (9/13) 7:50 PM ADT (9/13)
Length of Visible Light 13h 14m
Length of Day
12h 25m
New Moon, 0% of the Moon is Illuminated
Sep 13
New Moon
Sep 20
First Quarter
Sep 26
Full
Oct 4
Last Quarter
Oct 12
New

Hourly Weather History & Observations

Time (ADT) Temp. Heat Index Dew Point Humidity Pressure Visibility Wind Dir Wind Speed Gust Speed Precip Events Conditions
12:55 AM 80.6 °F 86.2 °F 75.2 °F 84% 30.01 in 7.0 mi SE 13.8 mph - N/A   Mostly Cloudy
1:55 AM 80.6 °F 86.2 °F 75.2 °F 84% 30.01 in 7.0 mi SE 16.1 mph - N/A   Mostly Cloudy
2:55 AM 80.6 °F 85.4 °F 73.4 °F 79% 29.99 in 7.0 mi SE 13.8 mph - N/A   Mostly Cloudy
3:55 AM 80.6 °F 85.4 °F 73.4 °F 79% 29.98 in 7.0 mi SE 12.7 mph - N/A   Mostly Cloudy
4:55 AM 80.6 °F 85.4 °F 73.4 °F 79% 29.97 in 7.0 mi SE 11.5 mph - N/A   Mostly Cloudy
5:55 AM 80.6 °F 85.4 °F 73.4 °F 79% 29.96 in 7.0 mi SSE 17.3 mph - N/A   Mostly Cloudy
6:55 AM 78.8 °F - 69.8 °F 74% 29.96 in 7.0 mi SE 11.5 mph - N/A   Mostly Cloudy
7:55 AM 80.6 °F 86.2 °F 75.2 °F 84% 29.96 in 7.0 mi SE 17.3 mph 23.0 mph N/A   Mostly Cloudy
8:55 AM 80.6 °F 86.2 °F 75.2 °F 84% 29.96 in 7.0 mi SE 13.8 mph 20.7 mph N/A   Mostly Cloudy
9:55 AM 82.4 °F 89.5 °F 75.2 °F 79% 29.96 in 7.0 mi SE 20.7 mph 27.6 mph N/A   Mostly Cloudy
10:26 AM - - - N/A% 29.95 in 6.0 mi SSE 23.0 mph 29.9 mph N/A Rain Rain Showers
10:30 AM - - - N/A% 29.95 in 7.0 mi SSE 23.0 mph 29.9 mph N/A   Mostly Cloudy
10:55 AM 82.4 °F 88.2 °F 73.4 °F 74% 29.96 in 7.0 mi SSE 25.3 mph 32.2 mph N/A   Mostly Cloudy
11:55 AM 84.2 °F 90.9 °F 73.4 °F 70% 29.95 in 7.0 mi SSE 23.0 mph 28.8 mph N/A   Mostly Cloudy
12:20 PM - - - N/A% 29.95 in 7.0 mi SSE 23.0 mph 32.2 mph N/A   Mostly Cloudy
12:26 PM - - - N/A% 29.95 in 3.0 mi South 29.9 mph 38.0 mph N/A Rain Rain Showers
12:55 PM 80.6 °F 87.1 °F 77.0 °F 89% 29.94 in 6.0 mi SSE 23.0 mph 29.9 mph N/A   Mostly Cloudy
1:22 PM - - - N/A% 29.92 in 1.0 mi SSE 25.3 mph 36.8 mph N/A Rain Heavy Rain Showers
1:30 PM - - - N/A% 29.92 in 6.0 mi SSE 25.3 mph 36.8 mph N/A   Mostly Cloudy
1:55 PM 82.4 °F 89.5 °F 75.2 °F 79% 29.92 in 6.0 mi SSE 23.0 mph 31.1 mph N/A   Unknown
2:55 PM 82.4 °F 89.5 °F 75.2 °F 79% 29.89 in 7.0 mi SSE 28.8 mph 34.5 mph N/A   Mostly Cloudy
3:55 PM 82.4 °F 89.5 °F 75.2 °F 79% 29.87 in 7.0 mi SSE 28.8 mph 38.0 mph N/A   Mostly Cloudy
4:55 PM 84.2 °F 94.1 °F 77.0 °F 79% 29.87 in 6.0 mi SSE 28.8 mph 35.7 mph N/A   Unknown
5:55 PM 84.2 °F 94.1 °F 77.0 °F 79% 29.87 in 6.0 mi South 28.8 mph 36.8 mph N/A   Unknown
6:15 PM - - - N/A% 29.87 in 1.0 mi South 34.5 mph 48.3 mph N/A Rain Heavy Rain Showers
6:41 PM - - - N/A% 29.85 in 6.0 mi South 23.0 mph 31.1 mph N/A Rain Light Rain Showers
6:55 PM 82.4 °F 89.5 °F 75.2 °F 79% 29.86 in 6.0 mi SSE 26.5 mph 32.2 mph N/A   Unknown
7:24 PM - - - N/A% 29.85 in 5.0 mi South 29.9 mph 38.0 mph N/A Rain Light Rain Showers
7:55 PM 82.4 °F 89.5 °F 75.2 °F 79% 29.85 in 6.0 mi South 28.8 mph 36.8 mph N/A   Unknown
8:55 PM 82.4 °F 90.9 °F 77.0 °F 84% 29.85 in 6.0 mi South 27.6 mph 34.5 mph N/A   Unknown
9:55 PM 82.4 °F 89.5 °F 75.2 °F 79% 29.87 in 6.0 mi South 29.9 mph 41.4 mph N/A   Unknown
10:17 PM - - - N/A% 29.88 in 7.0 mi South 32.2 mph 46.0 mph N/A Rain Light Rain Showers
10:55 PM 78.8 °F - 75.2 °F 89% 29.87 in 6.0 mi South 32.2 mph 39.1 mph N/A   Unknown
11:55 PM 82.4 °F 90.9 °F 77.0 °F 84% 29.86 in 6.0 mi South 32.2 mph 38.0 mph N/A   Unknown